Weather History for Lancaster, SC

Change the Weather History Date:

Friday, January 18, 2013

  Actual Average (KUZA) Record (KUZA)
Temperature  
Mean Temperature 39 °F -  
Max Temperature 50 °F 51 °F 74 °F (1974)
Min Temperature 28 °F 31 °F 14 °F (1976)
Degree Days  
Heating Degree Days 26    
Moisture  
Dew Point 29 °F    
Average Humidity 81    
Maximum Humidity 100    
Minimum Humidity 30    
Precipitation  
Precipitation 0.00 in - - ()
Sea Level Pressure  
Sea Level Pressure 30.42 in    
Wind  
Wind Speed 3 mph (NNE)    
Max Wind Speed 13 mph    
Max Gust Speed 16 mph    
Visibility 10 miles    
Events Rain    
Averages and records for this station are not official NWS values.
T = Trace of Precipitation, MM = Missing Value Source: NWS Daily Summary

Daily Weather History Graph

Daily Weather History Graph

Search for Another Location

Airport:

Trip Planner

Search our weather history database for the weather conditions in past years. The results will help you decide how hot, cold, wet, or windy it might be!

Date:

Astronomy

Jan. 18, 2013 Rise Set
Actual Time 7:29 AM EST 5:38 PM EST
Civil Twilight 7:02 AM EST 6:06 PM EST
Nautical Twilight 6:31 AM EST 6:36 PM EST
Astronomical Twilight 6:01 AM EST 7:07 PM EST
Moon 11:27 AM EST (1/18) 12:08 AM EST (1/18)
Length of Visible Light 11h 04m
Length of Day
10h 09m
Waxing Crescent, 47% of the Moon is Illuminated
Jan 18
Waxing Crescent
Jan 18
First Quarter
Jan 26
Full
Feb 3
Last Quarter
Feb 10
New

Hourly Weather History & Observations

Time (EST) Temp. Windchill Dew Point Humidity Pressure Visibility Wind Dir Wind Speed Gust Speed Precip Events Conditions
12:15 AM 35.6 °F 29.9 °F 35.6 °F 100% 30.20 in 10.0 mi North 6.9 mph - N/A Rain Light Rain
12:55 AM 35.6 °F 30.7 °F 35.6 °F 100% 30.21 in 10.0 mi North 5.8 mph - N/A Rain Light Rain
1:15 AM 33.8 °F 27.7 °F 33.8 °F 100% 30.23 in 10.0 mi North 6.9 mph - N/A Rain Light Rain
1:35 AM 35.6 °F 31.7 °F 35.6 °F 100% 30.24 in 10.0 mi North 4.6 mph - N/A Rain Light Rain
1:55 AM 33.8 °F 30.8 °F 33.8 °F 100% 30.25 in 10.0 mi North 3.5 mph - N/A Rain Light Rain
2:15 AM 33.8 °F 29.6 °F 33.8 °F 100% 30.27 in 10.0 mi North 4.6 mph - N/A Rain Light Rain
2:55 AM 32.0 °F - 32.0 °F 100% 30.28 in 10.0 mi Calm Calm - N/A Rain Light Rain
3:15 AM 32.0 °F - 32.0 °F 100% 30.29 in 7.0 mi Calm Calm - N/A Rain Light Rain
3:35 AM 32.0 °F - 32.0 °F 100% 30.29 in 8.0 mi Calm Calm - N/A   Clear
3:55 AM 32.0 °F - 32.0 °F 100% 30.30 in 10.0 mi Calm Calm - N/A Rain Light Rain
4:15 AM 32.0 °F - 32.0 °F 100% 30.30 in 10.0 mi Calm Calm - N/A Rain Light Rain
4:35 AM 32.0 °F - 32.0 °F 100% 30.30 in 9.0 mi Calm Calm - N/A Rain Light Rain
4:55 AM 32.0 °F - 32.0 °F 100% 30.31 in 2.0 mi Calm Calm - N/A Rain Light Rain
5:15 AM 30.2 °F - 30.2 °F 100% 30.31 in 2.5 mi Calm Calm - N/A Rain Light Freezing Rain
5:35 AM 32.0 °F - 32.0 °F 100% 30.32 in 10.0 mi Calm Calm - N/A Rain Light Rain
5:55 AM 32.0 °F - 32.0 °F 100% 30.32 in 10.0 mi Calm Calm - N/A Rain Light Rain
6:15 AM 32.0 °F - 32.0 °F 100% 30.33 in 10.0 mi Calm Calm - N/A Rain Light Rain
6:35 AM 32.0 °F - 32.0 °F 100% 30.34 in 10.0 mi Calm Calm - N/A Rain Light Rain
6:55 AM 30.2 °F - 30.2 °F 100% 30.35 in 9.0 mi Calm Calm - N/A Rain Light Freezing Rain
7:15 AM 30.2 °F - 30.2 °F 100% 30.35 in 10.0 mi Calm Calm - N/A Rain Light Freezing Rain
7:35 AM 28.4 °F - 28.4 °F 100% 30.37 in 9.0 mi Calm Calm - N/A Rain Light Freezing Rain
7:55 AM 28.4 °F - 28.4 °F 100% 30.40 in 8.0 mi Calm Calm - N/A Rain Light Freezing Rain
8:15 AM 28.4 °F - 28.4 °F 100% 30.40 in 7.0 mi Calm Calm - N/A Rain Light Freezing Rain
8:35 AM 28.4 °F 24.6 °F 28.4 °F 100% 30.42 in 8.0 mi NNE 3.5 mph - N/A Rain Light Freezing Rain
8:55 AM 32.0 °F 28.7 °F 32.0 °F 100% 30.44 in 10.0 mi North 3.5 mph - N/A Rain Light Rain
9:15 AM 35.6 °F 31.7 °F 35.6 °F 100% 30.45 in 10.0 mi NNW 4.6 mph - N/A Rain Light Rain
9:55 AM 37.4 °F 34.9 °F 35.6 °F 93% 30.49 in 10.0 mi NE 3.5 mph - N/A   Clear
10:15 AM 39.2 °F - 32.0 °F 75% 30.50 in 10.0 mi Calm Calm - N/A   Clear
10:35 AM 39.2 °F 34.2 °F 32.0 °F 75% 30.50 in 10.0 mi NE 6.9 mph - N/A   Clear
10:55 AM 41.0 °F 36.4 °F 32.0 °F 70% 30.51 in 10.0 mi NNE 6.9 mph - N/A   Clear
11:15 AM 44.6 °F 40.2 °F 30.2 °F 57% 30.50 in 10.0 mi NNE 8.1 mph - N/A   Clear
11:35 AM 44.6 °F 39.2 °F 28.4 °F 53% 30.50 in 10.0 mi NNE 10.4 mph - N/A   Clear
12:15 PM 46.4 °F 42.4 °F 26.6 °F 46% 30.49 in 10.0 mi North 8.1 mph - N/A   Clear
12:35 PM 46.4 °F 41.1 °F 26.6 °F 46% 30.48 in 10.0 mi North 11.5 mph - N/A   Clear
12:55 PM 48.2 °F - 24.8 °F 40% 30.48 in 10.0 mi North 9.2 mph - N/A   Clear
1:15 PM 48.2 °F - 24.8 °F 40% 30.47 in 10.0 mi NNE 9.2 mph - N/A   Clear
1:35 PM 48.2 °F - 24.8 °F 40% 30.47 in 10.0 mi NE 6.9 mph - N/A   Clear
1:55 PM 50.0 °F - 23.0 °F 35% 30.47 in 10.0 mi NNE 12.7 mph 16.1 mph N/A   Clear
2:15 PM 48.2 °F - 21.2 °F 34% 30.46 in 10.0 mi NNE 6.9 mph - N/A   Clear
2:35 PM 50.0 °F - 23.0 °F 35% 30.46 in 10.0 mi NE 5.8 mph - N/A   Clear
2:55 PM 50.0 °F - 23.0 °F 35% 30.46 in 10.0 mi North 6.9 mph - N/A   Clear
3:15 PM 50.0 °F - 19.4 °F 30% 30.46 in 10.0 mi ENE 3.5 mph - N/A   Clear
3:35 PM 50.0 °F - 19.4 °F 30% 30.47 in 10.0 mi North 3.5 mph - N/A   Clear
3:55 PM 50.0 °F - 19.4 °F 30% 30.47 in 10.0 mi ENE 3.5 mph - N/A   Clear
4:15 PM 48.2 °F - 19.4 °F 32% 30.47 in 10.0 mi NNE 5.8 mph - N/A   Clear
4:35 PM 48.2 °F - 19.4 °F 32% 30.48 in 10.0 mi Calm Calm - N/A   Clear
4:55 PM 48.2 °F - 23.0 °F 37% 30.48 in 10.0 mi NE 4.6 mph - N/A   Clear
5:15 PM 44.6 °F - 26.6 °F 49% 30.48 in 10.0 mi Calm Calm - N/A   Clear
5:35 PM 42.8 °F - 28.4 °F 57% 30.49 in 10.0 mi Calm Calm - N/A   Clear
6:15 PM 37.4 °F - 32.0 °F 81% 30.50 in 10.0 mi Calm Calm - N/A   Clear
6:55 PM 33.8 °F - 32.0 °F 93% 30.51 in 10.0 mi Calm Calm - N/A   Clear
7:15 PM 32.0 °F - 32.0 °F 100% 30.52 in 10.0 mi Calm Calm - N/A   Clear
7:35 PM 32.0 °F - 32.0 °F 100% 30.52 in 10.0 mi Calm Calm - N/A   Clear
7:55 PM 32.0 °F - 32.0 °F 100% 30.52 in 10.0 mi Calm Calm - N/A   Clear
8:15 PM 30.2 °F - 30.2 °F 100% 30.52 in 10.0 mi Calm Calm - N/A   Clear
8:35 PM 30.2 °F - 30.2 °F 100% 30.52 in 10.0 mi Calm Calm - N/A   Clear
8:55 PM 28.4 °F - 28.4 °F 100% 30.52 in 10.0 mi Calm Calm - N/A   Clear
9:15 PM 28.4 °F - 28.4 °F 100% 30.52 in 10.0 mi Calm Calm - N/A   Clear
9:35 PM 28.4 °F - 28.4 °F 100% 30.52 in 10.0 mi Calm Calm - N/A   Clear
10:15 PM 28.4 °F - 28.4 °F 100% 30.52 in 10.0 mi Calm Calm - N/A   Clear
10:35 PM 28.4 °F - 28.4 °F 100% 30.52 in 10.0 mi Calm Calm - N/A   Clear
10:55 PM 28.4 °F - 28.4 °F 100% 30.51 in 10.0 mi Calm Calm - N/A   Clear
11:15 PM 28.4 °F - 28.4 °F 100% 30.51 in 10.0 mi Calm Calm - N/A   Clear
11:35 PM 28.4 °F - 28.4 °F 100% 30.50 in 10.0 mi Calm Calm - N/A   Clear
11:55 PM 28.4 °F - 28.4 °F 100% 30.50 in 10.0 mi Calm Calm - N/A   Clear